"TOA5","AWS1","CR1000","7964","CR1000.Std.14","CPU:AWS1_114.CR1","64363","TBL110"
"TIMESTAMP","RECORD","Wind_spd_WVc(1)","Wind_spd_WVc(2)","Air_Temp_Avg","Humidity_Avg","SW_upper_Wm2_Avg","Rain_Tot","Press_Avg","Issui_Tot","Depth_cm","SR50A_Raw","Quality","Ground_Temp_Avg(1)","Ground_Temp_Avg(2)","SW_lower_Wm2_Avg","Albedo_Avg","SWC_per(1)","SWC_per(2)","Period(1)","Period(2)"
"TS","RN","","","","","","","","","","","","","","","","","","",""
"","","WVc","WVc","Avg","Avg","Avg","Tot","Avg","Tot","Smp","Smp","Smp","Avg","Avg","Avg","Avg","Smp","Smp","Smp","Smp"
"2016-10-01 00:00:00",255517,0,0,13.33,100,0,0.5,868.9315,0,-0.532,3.11,235,17.45,17.71,0.3183236,0,50.17,57.22,33.34,35.03
"2016-10-01 00:10:00",255518,0,0,13.42,100,0,0,868.923,0,-0.58,3.11,200,17.44,17.71,0.4547464,0,50.17,57.22,33.34,35.03
"2016-10-01 00:20:00",255519,0.056,315.1,13.37,100,0.01179087,0,868.9294,0,-0.845,3.114,206,17.4,17.71,0.3524278,0.096,50.22,57.16,33.35,35.02
"2016-10-01 00:30:00",255520,0.04,334.3,13.3,100,0,0,868.8514,0,-0.712,3.112,248,17.4,17.71,0.4206394,0,50.28,57.22,33.37,35.03
"2016-10-01 00:40:00",255521,0,0,13.35,100,0.007860574,0,868.7103,0,-0.399,3.108,291,17.41,17.71,0.3107426,0.064,50.33,57.22,33.38,35.03
"2016-10-01 00:50:00",255522,0.124,319.4,13.6,100,0.3026321,1.5,868.8768,0,-2.755,3.131,217,17.44,17.71,0.3751649,0.771,50.39,57.22,33.39,35.03
"2016-10-01 01:00:00",255523,0.012,11.41,13.6,100,0,0.5,868.8809,0,-0.218,3.106,269,17.39,17.71,0.2122145,0,50.44,57.22,33.41,35.03
"2016-10-01 01:10:00",255524,0.034,20.3,13.56,100,0,0,868.923,0,0.554,3.098,275,17.37,17.71,0.2273727,0,50.61,57.22,33.45,35.03
"2016-10-01 01:20:00",255525,0.061,34.85,13.6,100,0,0,868.9167,0,-0.471,3.108,213,17.35,17.71,0.2538995,0,50.88,57.22,33.52,35.03
"2016-10-01 01:30:00",255526,0,0,13.66,100,0.003930287,1,868.7798,0,-0.984,3.113,225,17.31,17.71,0.3334799,0.032,50.99,57.27,33.54,35.05
"2016-10-01 01:40:00",255527,0,0,13.7,100,0.02358197,0,868.8873,0,-0.214,3.105,212,17.28,17.71,0.3941143,0.193,51.21,57.33,33.6,35.06
"2016-10-01 01:50:00",255528,0.027,355.1,13.84,100,0.02358205,0.5,868.923,0,-1.082,3.113,207,17.25,17.71,0.363801,0.193,51.38,57.45,33.64,35.09
"2016-10-01 02:00:00",255529,0.054,5.367,13.73,100,0,0.5,869.0368,0,-0.725,3.11,200,17.27,17.71,0.2690593,0,51.55,57.56,33.68,35.12
"2016-10-01 02:10:00",255530,0.395,68.56,13.66,100,0,0,868.9483,0,0.246,3.101,218,17.28,17.71,0.4357986,0,51.66,57.62,33.7,35.13
"2016-10-01 02:20:00",255531,0.893,56.43,13.61,100,0,0.5,868.923,0,0.191,3.102,214,17.28,17.71,0.4547456,0,51.71,57.74,33.72,35.16
"2016-10-01 02:30:00",255532,0.807,39.6,13.67,100,0,0.5,868.8809,0,-2.569,3.128,196,17.25,17.72,0.4547453,0,51.71,57.86,33.72,35.18
"2016-10-01 02:40:00",255533,0.52,63.18,13.84,100,0,0,868.8473,0,-2.304,3.124,224,17.23,17.73,0.4547453,0,51.88,57.91,33.76,35.2
"2016-10-01 02:50:00",255534,0.788,44.02,13.97,100,0,0.5,868.8725,0,-3.74,3.138,210,17.2,17.73,0.4547453,0,51.88,58.03,33.76,35.22
"2016-10-01 03:00:00",255535,0.484,25.3,14.06,100,0,1.5,868.9062,0,-3.529,3.135,244,17.18,17.73,0.4547453,0,51.94,58.21,33.77,35.26
"2016-10-01 03:10:00",255536,0.036,338.2,14.09,100,0,4,868.9378,0,-3.33,3.134,208,17.19,17.74,0.3183217,0,52.77,58.32,33.98,35.29
"2016-10-01 03:20:00",255537,0.133,108.1,14,100,0,2,868.923,0,-0.869,3.11,220,17.11,17.67,0.1591609,0,53.33,59.44,34.11,35.55
"2016-10-01 03:30:00",255538,0.259,85.1,14.12,100,0,1.5,868.9757,0,-1.376,3.114,190,17.01,17.67,0.3334799,0,53.33,60.56,34.11,35.81
"2016-10-01 03:40:00",255539,0.506,66.97,14.2,100,0,1.5,869.041,0,-0.989,3.11,203,17.01,17.66,0.3600067,0,53.39,61.4,34.13,36
"2016-10-01 03:50:00",255540,0.036,90.8,14.22,100,0,0.5,869.2032,0,-1.4,3.114,212,16.97,17.66,0.341059,0,53.33,63.57,34.11,36.49
"2016-10-01 04:00:00",255541,0,0,14.21,100,0,0.5,869.4286,0,-2.402,3.124,200,16.92,17.64,0.2046354,0,53.28,64.48,34.1,36.69
"2016-10-01 04:10:00",255542,0,0,14.23,100,0,0,869.4286,0,-1.834,3.118,208,16.93,17.61,0.1477922,0,53.28,64.54,34.1,36.7
"2016-10-01 04:20:00",255543,0,0,14.25,100,0,0,869.4286,0,-1.78,3.117,217,16.92,17.62,0.208425,0,53.22,64.48,34.08,36.69
"2016-10-01 04:30:00",255544,0,0,14.41,100,0.1690023,0,869.4349,0,-1.678,3.116,212,16.89,17.62,0.382744,0.611,53.16,64.48,34.07,36.69
"2016-10-01 04:40:00",255545,0,0,14.3,100,0,0,869.4286,0,-0.754,3.107,261,16.9,17.62,0.07958043,0,53.11,64.48,34.06,36.69
"2016-10-01 04:50:00",255546,0,0,14.33,100,0.03537258,0,869.4581,0,-2.208,3.12,254,16.9,17.62,0.2766367,0.305,53.05,64.48,34.04,36.69
"2016-10-01 05:00:00",255547,0,0,14.73,100,0.4008893,0,869.5023,0,-2.692,3.124,240,16.91,17.62,0.6252748,1.422,52.94,64.42,34.02,36.68
"2016-10-01 05:10:00",255548,0,0,14.7,100,0,0,869.4286,0,-1.507,3.112,283,16.86,17.62,0.2046354,0,52.88,63.75,34,36.53
"2016-10-01 05:20:00",255549,0,0,14.59,100,0.01965144,0,869.4496,0,-3.821,3.135,192,16.84,17.62,0.09852815,0.161,52.83,63.51,33.99,36.47
"2016-10-01 05:30:00",255550,0,0,14.84,100,0.2987018,0,869.4875,0,-4.485,3.141,189,16.78,17.61,0.382744,1.125,52.83,63.2,33.99,36.4
"2016-10-01 05:40:00",255551,0,0,14.85,100,0.4637738,0,869.4286,0,-4.637,3.142,182,16.76,17.6,0.3183217,0.557,52.77,63.02,33.98,36.36
"2016-10-01 05:50:00",255552,0.094,94.9,15,100,1.619278,0,869.4286,0,-4.299,3.138,189,16.75,17.58,0.4964303,0.356,52.66,62.24,33.95,36.19
"2016-10-01 06:00:00",255553,0.048,180.2,14.99,100,3.368256,0,869.4475,0,-4.117,3.136,194,16.76,17.58,0.6631703,0.197,52.66,61.7,33.95,36.06
"2016-10-01 06:10:00",255554,0,0,15.07,100,2.790504,0,869.5886,0,-4.577,3.14,192,16.76,17.58,0.6214854,0.223,52.6,61.52,33.94,36.02
"2016-10-01 06:20:00",255555,0.09,342.6,15.08,100,2.794434,0,869.7318,0,-3.912,3.134,205,16.76,17.58,0.5191676,0.185,52.6,61.28,33.94,35.97
"2016-10-01 06:30:00",255556,0.068,349.5,14.89,100,4.669181,0,869.9067,0,-3.616,3.133,208,16.76,17.58,0.6480121,0.141,52.55,60.98,33.92,35.9
"2016-10-01 06:40:00",255557,0,0,14.69,100,8.171067,0,869.8098,0,-3.488,3.132,220,16.77,17.58,1.030756,0.126,52.49,60.86,33.91,35.88
"2016-10-01 06:50:00",255558,0.004,97.8,14.76,100,8.674144,0,869.934,0,-3.121,3.127,219,16.76,17.6,1.235391,0.141,52.44,60.68,33.89,35.83
"2016-10-01 07:00:00",255559,0,0,14.97,100,13.74421,0,869.934,0,-4.069,3.136,200,16.77,17.61,1.951615,0.144,52.44,60.56,33.89,35.81
"2016-10-01 07:10:00",255560,0,0,15.02,100,23.42058,0,869.934,0,-4.009,3.134,193,16.77,17.61,3.035425,0.129,52.44,60.44,33.89,35.78
"2016-10-01 07:20:00",255561,0.01,39.2,15.28,100,32.08686,0,869.9467,0,-4.366,3.137,193,16.76,17.59,4.414819,0.138,52.38,60.27,33.88,35.74
"2016-10-01 07:30:00",255562,0.391,87.4,15.36,100,34.90095,0,869.9678,0,-4.415,3.137,188,16.76,17.57,4.627034,0.133,52.38,60.21,33.88,35.73
"2016-10-01 07:40:00",255563,0.067,123.3,15.53,100,46.19659,0,869.9488,0,-4.305,3.135,188,16.76,17.55,5.828319,0.127,52.32,60.09,33.87,35.7
"2016-10-01 07:50:00",255564,0.023,122.4,15.6,100,38.4775,0,870.092,0,-4.252,3.134,198,16.75,17.54,4.767247,0.124,52.27,60.03,33.85,35.69
"2016-10-01 08:00:00",255565,0.121,50.57,15.64,100,34.32319,0,870.1868,0,-4.56,3.137,191,16.75,17.54,4.278396,0.125,52.27,59.91,33.85,35.66
"2016-10-01 08:10:00",255566,0.041,27.69,15.6,100,38.89805,0,870.1868,0,-4.022,3.132,195,16.75,17.52,4.774826,0.123,52.27,59.85,33.85,35.64
"2016-10-01 08:20:00",255567,0,0,15.61,100,45.26118,0,870.3068,0,-4.82,3.14,182,16.75,17.48,5.422838,0.12,52.1,59.79,33.81,35.63
"2016-10-01 08:30:00",255568,0.166,12.76,15.54,100,47.12807,0,870.4354,0,-4.312,3.136,187,16.75,17.47,5.498629,0.117,52.05,59.73,33.8,35.62
"2016-10-01 08:40:00",255569,0.077,325.3,15.2,100,48.66088,0,870.4395,0,-4.088,3.135,188,16.76,17.45,5.699475,0.117,52.05,59.67,33.8,35.6
"2016-10-01 08:50:00",255570,0.009,332.2,15.2,100,67.72671,0,870.4753,0,-3.749,3.131,194,16.76,17.45,8.026256,0.118,52.05,59.61,33.8,35.59
"2016-10-01 09:00:00",255571,0.175,305.4,15.03,100,43.59474,0,870.6923,0,-3.555,3.131,201,16.78,17.46,5.024936,0.115,51.99,59.56,33.79,35.58
"2016-10-01 09:10:00",255572,0.077,322.3,15,100,43.81484,0,870.7576,0,-3.502,3.13,198,16.82,17.48,5.210624,0.119,51.94,59.5,33.77,35.56
"2016-10-01 09:20:00",255573,0,0,15.01,100,40.56449,0,870.9451,0,-1.605,3.112,265,16.87,17.49,4.748299,0.117,51.94,59.5,33.77,35.56
"2016-10-01 09:30:00",255574,0.078,303.2,15.13,100,72.22688,0,870.9451,0,-2.872,3.122,225,16.91,17.5,8.674268,0.12,51.88,59.44,33.76,35.55
"2016-10-01 09:40:00",255575,0,0,15.43,100,79.45468,0,870.9429,0,-2.202,3.115,243,16.88,17.48,9.519336,0.12,51.82,59.38,33.75,35.54
"2016-10-01 09:50:00",255576,0,0,15.55,100,87.81047,0,870.9451,0,-1.657,3.109,266,16.87,17.47,10.55767,0.12,51.82,59.38,33.75,35.54
"2016-10-01 10:00:00",255577,0,0,15.69,100,102.3368,0,870.9198,0,-1.469,3.106,229,16.85,17.46,12.40318,0.121,51.82,59.32,33.75,35.52
"2016-10-01 10:10:00",255578,0,0,15.92,100,143.2943,0,870.9387,0,-3.313,3.123,213,16.84,17.44,17.65549,0.123,51.82,59.26,33.75,35.51
"2016-10-01 10:20:00",255579,0.204,74.5,16.06,100,173.0505,0,870.8903,0,-0.584,3.096,229,16.85,17.44,21.87704,0.126,51.77,59.2,33.73,35.5
"2016-10-01 10:30:00",255580,0.341,131.4,16.15,100,261.4545,0,870.6944,0,-3.973,3.128,195,16.89,17.45,34.1438,0.131,51.77,59.2,33.73,35.5
"2016-10-01 10:40:00",255581,0.189,81.5,16.57,100,171.8203,0,870.7639,0,-4.372,3.13,200,16.86,17.45,21.92251,0.128,51.71,59.14,33.72,35.48
"2016-10-01 10:50:00",255582,0.211,42.61,16.57,100,132.9341,0,870.7744,0,-1.599,3.104,280,16.85,17.44,16.65126,0.125,51.71,59.08,33.72,35.47
"2016-10-01 11:00:00",255583,0.09,357.5,16.37,100,114.0923,0,870.7239,0,0.35,3.086,319,16.9,17.39,14.43437,0.126,51.71,59.14,33.72,35.48
"2016-10-01 11:10:00",255584,0.132,56.6,16.31,100,120.8799,0,870.7133,0,-3.223,3.12,197,16.93,17.39,15.52576,0.128,51.66,59.14,33.7,35.48
"2016-10-01 11:20:00",255585,0.02,291.3,16.57,100,215.5291,0,870.6923,0,-0.196,3.089,262,16.93,17.38,28.86875,0.134,51.66,59.08,33.7,35.47
"2016-10-01 11:30:00",255586,0.145,0.91,16.54,100,134.6516,0,870.8924,0,-3.815,3.126,200,16.93,17.38,16.49589,0.122,51.66,59.03,33.7,35.45
"2016-10-01 11:40:00",255587,0.359,9.56,16.21,100,138.0828,0,870.9177,0,-2.951,3.119,203,16.94,17.41,18.39445,0.133,51.6,59.03,33.69,35.45
"2016-10-01 11:50:00",255588,0.148,30.66,16.4,100,209.7634,0,870.6944,0,-3.294,3.12,185,17.01,17.4,28.87633,0.138,51.6,59.03,33.69,35.45
"2016-10-01 12:00:00",255589,0.421,0.858,16.53,100,205.2042,0,870.6923,0,-2.422,3.112,208,16.98,17.37,27.76978,0.135,51.55,58.97,33.68,35.44
"2016-10-01 12:10:00",255590,0.472,17.38,16.61,100,331.0913,0,870.4943,0,-1.426,3.1,222,17.03,17.37,45.94823,0.139,51.49,58.97,33.66,35.44
"2016-10-01 12:20:00",255591,0.167,4.909,17.19,100,431.5023,0,870.2795,0,-1.031,3.092,197,17.1,17.38,60.37881,0.138,51.49,58.97,33.66,35.44
"2016-10-01 12:30:00",255592,0.155,304.6,17.69,99,399.4429,0,870.1868,0,-1.293,3.095,197,17.03,17.45,53.63721,0.133,51.55,58.91,33.68,35.43
"2016-10-01 12:40:00",255593,0.275,302.8,17.5,100,233.7971,0,870.2374,0,-2.03,3.104,197,17.1,17.44,30.75215,0.13,51.49,58.91,33.66,35.43
"2016-10-01 12:50:00",255594,0.113,317.8,17.33,100,174.0056,0,870.2453,0,-0.99,3.093,232,17.17,17.38,22.75621,0.129,51.49,58.91,33.66,35.43
"2016-10-01 13:00:00",255595,0.354,20.9,17.2,100,232.1345,0,870.2361,0,-1.213,3.097,225,17.15,17.35,31.98755,0.138,51.44,58.85,33.65,35.41
"2016-10-01 13:10:00",255596,0.157,5.486,17.34,99.7,257.8819,0,870.1774,0,-1.475,3.097,199,17.13,17.33,36.56152,0.142,51.44,58.85,33.65,35.41
"2016-10-01 13:20:00",255597,0.195,90.6,17.65,100,170.5312,0,870.1872,0,-1.293,3.095,212,17.24,17.35,22.27873,0.128,51.44,58.85,33.65,35.41
"2016-10-01 13:30:00",255598,0.215,107.2,17.5,100,206.0807,0,870.1749,0,0.564,3.077,297,17.23,17.33,28.11084,0.133,51.38,58.85,33.64,35.41
"2016-10-01 13:40:00",255599,0.624,132.6,17.77,97.1,321.5171,0,870.1443,0,2.345,3.057,353,17.28,17.32,43.82608,0.138,51.38,58.79,33.64,35.4
"2016-10-01 13:50:00",255600,0.279,150.8,18.23,89,248.0208,0,870.0692,0,-0.745,3.086,232,17.32,17.36,31.21448,0.127,51.38,58.79,33.64,35.4
"2016-10-01 14:00:00",255601,0.108,85.3,18.32,92.5,145.4088,0,870.1476,0,-2.088,3.099,200,17.29,17.36,19.2471,0.131,51.38,58.79,33.64,35.4
"2016-10-01 14:10:00",255602,0.078,36.31,18.23,94.6,234.1665,0,870.1819,0,-1.357,3.091,217,17.43,17.35,33.69663,0.14,51.38,58.79,33.64,35.4
"2016-10-01 14:20:00",255603,0.11,317.6,18.49,91.7,199.3756,0,870.185,0,-1.357,3.091,242,17.38,17.41,26.87166,0.134,51.38,58.73,33.64,35.39
"2016-10-01 14:30:00",255604,0.283,60.28,18.4,90.8,173.3492,0,870.1814,0,0.273,3.075,325,17.52,17.41,23.24128,0.134,51.33,58.73,33.62,35.39
"2016-10-01 14:40:00",255605,0.068,182,18.27,92.3,143.2157,0,870.1924,0,-3.279,3.111,216,17.52,17.4,18.22013,0.127,51.33,58.73,33.62,35.39
"2016-10-01 14:50:00",255606,0.059,10.25,18.15,93.4,175.9314,0,870.1819,0,-2.215,3.1,202,17.45,17.39,23.7036,0.135,51.27,58.73,33.61,35.39
"2016-10-01 15:00:00",255607,0.079,35.59,18.11,93,162.3326,0,870.1827,0,-2.986,3.107,205,17.54,17.39,21.53219,0.132,51.27,58.79,33.61,35.4
"2016-10-01 15:10:00",255608,0.158,161.5,18.17,92,144.2258,0,870.1881,0,-1.484,3.095,209,17.57,17.42,18.73172,0.13,51.21,58.73,33.6,35.39
"2016-10-01 15:20:00",255609,0.18,120,18.16,91.9,178.5608,0,870.1832,0,-1.937,3.098,213,17.54,17.42,23.63539,0.132,51.21,58.73,33.6,35.39
"2016-10-01 15:30:00",255610,0.205,126.4,18.14,90.9,131.1262,0,870.2626,0,-2.143,3.1,244,17.64,17.41,16.37083,0.124,51.27,58.73,33.61,35.39
"2016-10-01 15:40:00",255611,0.028,152.2,18.19,91.3,119.9209,0,870.3211,0,-2.008,3.098,233,17.68,17.42,15.06723,0.124,51.21,58.67,33.6,35.37
"2016-10-01 15:50:00",255612,0.071,145.7,18.14,92,88.14062,0,870.2053,0,-2.35,3.102,244,17.63,17.43,10.06124,0.113,51.21,58.67,33.6,35.37
"2016-10-01 16:00:00",255613,0.031,328,17.95,94,86.6078,0,870.2504,0,0.263,3.079,307,17.75,17.44,9.617864,0.108,51.16,58.67,33.58,35.37
"2016-10-01 16:10:00",255614,0,0,17.87,97.1,86.48989,0,870.3705,0,1.2,3.069,289,17.8,17.45,10.43641,0.119,51.16,58.67,33.58,35.37
"2016-10-01 16:20:00",255615,0.032,333.2,17.8,96.1,93.08492,0,870.4266,0,-0.039,3.081,301,17.76,17.45,11.67559,0.124,51.16,58.67,33.58,35.37
"2016-10-01 16:30:00",255616,0.048,74.45,17.88,96.5,48.23248,0,870.4395,0,-1.492,3.096,265,17.79,17.45,4.884723,0.1,51.16,58.67,33.58,35.37
"2016-10-01 16:40:00",255617,0.042,137.5,17.72,98.7,15.48926,0,870.4395,0,-1.912,3.101,205,17.87,17.45,0.5608526,0.019,51.1,58.67,33.57,35.37
"2016-10-01 16:50:00",255618,0.295,33.83,17.54,100,7.12168,0,870.4648,0,-1.713,3.1,225,17.88,17.45,0.02652681,0.004,51.1,58.61,33.57,35.36
"2016-10-01 17:00:00",255619,0.055,338.5,17.3,100,7.353567,0,870.4543,0,-1.332,3.097,256,17.87,17.45,0.2652681,0.034,51.1,58.61,33.57,35.36
"2016-10-01 17:10:00",255620,0.114,331.4,17.18,100,7.80555,0,870.5975,0,-1.903,3.103,210,17.85,17.45,0.6063271,0.075,51.1,58.61,33.57,35.36
"2016-10-01 17:20:00",255621,0.036,66.98,17.21,100,6.791536,0,870.6923,0,-1.411,3.098,258,17.83,17.45,0.6555912,0.095,51.05,58.61,33.56,35.36
"2016-10-01 17:30:00",255622,0.441,143.7,17.14,100,4.24864,0,870.6881,0,-1.696,3.101,264,17.87,17.45,0.3259008,0.077,51.05,58.56,33.56,35.35
"2016-10-01 17:40:00",255623,0.354,131.3,17.07,100,0.9747112,0,870.6923,0,-1.831,3.103,267,17.89,17.45,0.125055,0.101,51.05,58.56,33.56,35.35
"2016-10-01 17:50:00",255624,0.234,88.2,17,100,0,0,870.6923,0,-2.013,3.105,241,17.91,17.45,0,0,51.05,58.56,33.56,35.35
"2016-10-01 18:00:00",255625,0.009,51.48,16.98,100,0,0,870.7133,0,-2.758,3.112,219,17.95,17.46,0,0,51.05,58.5,33.56,35.33
"2016-10-01 18:10:00",255626,0.061,20.57,16.96,100,0,0,870.8945,0,-3.02,3.115,219,17.96,17.5,0.1970563,0,50.99,58.5,33.54,35.33
"2016-10-01 18:20:00",255627,0.008,77.6,16.89,100,0,0,870.9345,0,-2.56,3.111,225,17.97,17.52,0.1440027,0,50.99,58.5,33.54,35.33
"2016-10-01 18:30:00",255628,0.238,142.7,16.83,100,0,0,870.7534,0,-3.486,3.12,200,17.97,17.53,0.003789545,0,50.94,58.5,33.53,35.33
"2016-10-01 18:40:00",255629,0.359,168.9,16.72,100,0,0,870.983,0,-3.493,3.121,200,17.97,17.53,0,0,50.99,58.44,33.54,35.32
"2016-10-01 18:50:00",255630,0.465,132,16.56,100,0,0,871.1199,0,-3.96,3.126,194,17.97,17.56,0,0,50.94,58.44,33.53,35.32
"2016-10-01 19:00:00",255631,0.658,125.2,16.44,100,0,0,871.103,0,-3.967,3.127,190,17.97,17.57,0,0,50.94,58.5,33.53,35.33
"2016-10-01 19:10:00",255632,0.375,121.3,16.41,100,0,0,871.143,0,-4.069,3.128,195,17.97,17.56,0.007579089,0,50.94,58.38,33.53,35.31
"2016-10-01 19:20:00",255633,0.269,130,16.38,100,0,0,871.3262,0,-3.943,3.127,195,17.96,17.54,0.01894772,0,50.88,58.44,33.52,35.32
"2016-10-01 19:30:00",255634,0.19,309.2,16.39,100,0,0,871.4568,0,-3.943,3.127,196,17.92,17.54,0.125055,0,50.88,58.38,33.52,35.31
"2016-10-01 19:40:00",255635,0.089,147.5,16.4,100,0,0,871.4843,0,-3.839,3.126,197,17.9,17.54,0,0,50.88,58.44,33.52,35.32
"2016-10-01 19:50:00",255636,0.073,62.77,16.37,100,0,0,871.6991,0,-2.683,3.115,227,17.89,17.54,0.1705295,0,50.94,58.44,33.53,35.32
"2016-10-01 20:00:00",255637,0.082,121.8,16.37,100,0,0,871.6674,0,-3.658,3.124,204,17.89,17.54,0.1818981,0,50.88,58.38,33.52,35.31
"2016-10-01 20:10:00",255638,0.109,345.2,16.37,100,0,0,871.7748,0,-3.373,3.121,211,17.89,17.55,0.2273727,0,50.88,58.38,33.52,35.31
"2016-10-01 20:20:00",255639,0.276,121.6,16.41,100,0,0,871.7391,0,-3.245,3.12,228,17.9,17.57,0.1515818,0,50.88,58.38,33.52,35.31
"2016-10-01 20:30:00",255640,0.155,108,16.39,100,0,0,871.7454,0,-3.61,3.124,211,17.93,17.61,0.03789544,0,50.88,58.32,33.52,35.29
"2016-10-01 20:40:00",255641,0.008,88.4,16.4,100,0,0,871.8633,0,-2.216,3.11,257,17.92,17.61,0.2273727,0,50.83,58.32,33.5,35.29
"2016-10-01 20:50:00",255642,0.417,73.1,16.38,100,0,0,871.9561,0,-2.319,3.111,250,17.92,17.59,0.1591609,0,50.88,58.32,33.52,35.29
"2016-10-01 21:00:00",255643,0.486,141.9,16.32,100,0,0,871.9434,0,-2.888,3.117,231,17.89,17.58,0,0,50.83,58.32,33.5,35.29
"2016-10-01 21:10:00",255644,0.389,142.2,16.29,100,0,0,871.8044,0,-2.223,3.111,259,17.88,17.58,0,0,50.83,58.26,33.5,35.28
"2016-10-01 21:20:00",255645,0.318,140.9,16.31,100,0,0,871.8697,0,-2.326,3.112,251,17.88,17.58,0,0,50.83,58.26,33.5,35.28
"2016-10-01 21:30:00",255646,0.558,142.2,16.19,100,0,0,871.876,0,-1.867,3.108,263,17.88,17.58,0,0,50.83,58.26,33.5,35.28
"2016-10-01 21:40:00",255647,0.775,144.8,16.22,100,0,0,871.737,0,-1.605,3.105,269,17.88,17.59,0.003789545,0,50.83,58.21,33.5,35.26
"2016-10-01 21:50:00",255648,0.729,153,16.23,100,0,0,871.7032,0,-1.709,3.106,275,17.88,17.62,0.16674,0,50.83,58.21,33.5,35.26
"2016-10-01 22:00:00",255649,0.426,150.9,16.35,100,0,0,871.7117,0,-2.114,3.109,260,17.88,17.62,0.2690577,0,50.77,58.21,33.49,35.26
"2016-10-01 22:10:00",255650,0.261,115.2,16.47,100,0,0,871.8212,0,-3.524,3.122,218,17.89,17.62,0.3145322,0,50.77,58.21,33.49,35.26
"2016-10-01 22:20:00",255651,0.199,110.4,16.49,100,0,0,871.9371,0,-2.937,3.117,223,17.9,17.62,0.2122145,0,50.77,58.21,33.49,35.26
"2016-10-01 22:30:00",255652,0.379,129.5,16.41,100,0,0,871.9561,0,-4.536,3.133,189,17.91,17.62,0.05305362,0,50.77,58.15,33.49,35.25
"2016-10-01 22:40:00",255653,0.753,146.8,16.28,100,0,0,871.8401,0,-4.638,3.134,184,17.92,17.62,0,0,50.77,58.15,33.49,35.25
"2016-10-01 22:50:00",255654,0.34,125.1,16.36,100,0,0,871.8297,0,-4.173,3.129,192,17.93,17.63,0.1856877,0,50.72,58.15,33.47,35.25
"2016-10-01 23:00:00",255655,0.066,153.3,16.61,99.9,0,0,871.8907,0,-4.135,3.127,192,17.91,17.63,0.3675858,0,50.72,58.15,33.47,35.25
"2016-10-01 23:10:00",255656,0.05,137.8,16.8,96.2,0,0,871.7264,0,-3.85,3.124,198,17.86,17.65,0.3107426,0,50.72,58.15,33.47,35.25
"2016-10-01 23:20:00",255657,0.29,128.5,16.66,98.1,0.1296995,0,871.6591,0,-2.693,3.113,237,17.81,17.67,0.125055,0.466,50.72,58.09,33.47,35.24
"2016-10-01 23:30:00",255658,0.465,145.7,16.8,96,0.5305887,0,871.4737,0,-4.366,3.129,194,17.8,17.68,0.2463204,0.474,50.72,58.15,33.47,35.25
"2016-10-01 23:40:00",255659,0.272,6.895,16.77,96.6,0.4912859,0,871.4505,0,-4.565,3.13,188,17.8,17.68,0.1023177,0.19,50.72,58.09,33.47,35.24
"2016-10-01 23:50:00",255660,0.142,37.55,16.86,95.9,0.479495,0,871.4505,0,-3.748,3.123,208,17.8,17.68,0.06063271,0.094,50.72,58.03,33.47,35.22
